Location: Unspecified
(0.0000°N, 0.0000°E)
Time: 12:32:29
(UTC-05:00)

Daily predictions for brighter satellites

Satellite Brightness Start Highest point End
(mag) Time Altitude Azimuth Time Altitude Azimuth Time Altitude Azimuth
Cosmos 2251 Rocket 4.2 12:58:49 10° SSE 13:03:28 32° ESE 13:08:06 10° NE
GP-B 3.7 13:02:46 10° N 13:07:07 63° W 13:11:32 10° SSW
BREEZE-M DEB (TANK) 3.9 12:57:00 10° NNW 13:09:01 75° NE 13:13:48 10° SE
Cosmos 1743 Rocket 3.6 13:05:26 10° N 13:09:51 83° E 13:14:20 10° S
Cosmos 1726 2.0 13:07:44 10° S 13:11:29 79° E 13:15:11 10° N
Cosmos 921 Rocket 4.2 13:11:15 10° NNE 13:14:28 21° E 13:17:38 10° SE
Cosmos 1535 Rocket 4.5 13:09:54 10° S 13:16:05 69° E 13:22:09 10° N
ARIANE 5 DEB (SYLDA) 2.2 13:12:14 10° W 13:17:21 74° S 13:19:15 11° E
GPS 2-12 Rocket1 4.3 13:16:33 10° W 13:20:37 35° SSW 13:24:41 10° SE
Sea Lan Dem Rocket 4.4 13:16:00 10° W 13:21:27 83° S 23:11:26 10° E
ARIANE 5 R/B 4.2 13:11:01 10° W 13:22:20 62° N 13:25:41 13° ENE
Ariane 5 R/B 3.4 13:20:31 10° W 13:24:59 88° N 13:29:48 12° E
ERBS 2.9 13:26:48 10° S 13:29:59 38° ESE 13:32:13 17° ENE
Cosmos 1500 Rocket 3.8 13:26:05 10° N 13:30:21 71° W 13:34:39 10° S
ARIANE 5 DEB (SYLDA) 3.5 13:29:05 10° NW 13:30:27 15° N 13:31:08 13° NNE
ATLAS 3B CENTAUR R/B 3.6 13:26:06 10° NNW 13:31:15 38° NE 13:42:57 11° ESE
Cosmos 1315 Rocket 2.8 13:28:53 10° N 13:32:57 63° E 13:37:03 10° SSE
SL-16 R/B 3.2 13:27:36 10° NNW 13:33:04 52° WSW 13:38:34 10° S
Cosmos 2227 Rocket 2.5 13:28:22 10° SSW 13:33:59 73° WNW 13:39:36 10° N
USA 267 4.4 13:28:38 10° NNE 13:34:39 41° NW 13:40:42 10° WSW
ARIANE 5 R/B 4.2 13:38:45 10° WSW 13:42:24 55° SSE 13:49:16 18° E
Thor Agena Rocket 4.3 13:38:51 10° N 13:43:43 52° WNW 13:48:38 10° SSW
Cosmos 2228 Rocket 3.3 13:41:21 10° SSE 13:45:37 46° E 13:49:54 10° NNE
BREEZE-M (TANK) 1.6 13:43:05 10° NNW 13:45:52 54° NE 13:46:26 40° ESE
Cosmos 1934 Rocket 4.3 13:40:24 10° S 13:46:40 72° W 13:52:59 10° N
MOS 1 4.4 13:43:56 10° S 13:49:34 77° WSW 13:55:13 10° NNW
BLOCK DM-SL R/B 1.9 13:45:36 10° W 13:50:15 76° S 13:51:09 38° ESE
ARIANE 5 R/B 1.5 13:44:26 10° W 13:53:49 69° N 13:54:52 39° ENE
Tiangong 2 2.4 13:52:21 10° SSW 13:54:51 27° SE 13:54:51 27° SE
ALOS 2.1 13:50:50 10° SSE 13:55:29 75° E 14:00:08 10° N
Ariane H10+ 1.8 13:53:01 10° WNW 13:55:03 39° NW 13:55:03 39° NW
Sich 1 4.0 13:57:19 28° ESE 13:57:19 28° ESE 14:00:07 10° SSE
Shenzhou-11 Module 2.2 13:54:29 10° SW 13:57:29 63° NW 13:58:03 49° N
SPOT 3 Rocket 3.8 13:54:25 10° S 13:59:33 70° WSW 14:04:42 10° NNW
deb Olympus 3.5 13:48:56 10° W 14:00:10 73° N 14:01:31 39° ENE
RESURS DK-1 2.2 13:56:28 10° NNW 14:00:33 85° ENE 14:04:40 10° SSE
Cosmos 1328 Rocket 3.7 13:57:21 10° S 14:01:48 76° W 14:06:11 10° N
Cosmos 1455 3.7 13:59:35 10° SSE 14:01:19 22° SE 14:01:19 22° SE
FENGYUN 3A 3.5 13:58:45 10° SSE 14:04:08 84° ENE 14:09:31 10° N
HETE-2 4.4 14:04:57 10° W 14:09:05 73° N 14:09:33 64° NE
Cosmos 1805 Rocket 3.5 14:04:57 10° N 14:09:22 89° W 14:13:50 10° S
Cosmos 2360 Rocket 2.5 14:04:58 10° NNW 14:10:35 69° WSW 14:16:14 10° S
Iridium 2 3.6 14:07:24 10° S 14:11:10 81° W 14:12:52 31° N
Cosmos 2297 Rocket 3.7 14:06:19 10° SW 14:11:25 35° WNW 14:16:30 10° N
Cosmos 2100 Rocket 4.3 14:06:55 10° SSE 14:12:39 40° E 14:12:42 40° E
Milstar 3 Cent rocket 2.8 14:07:56 10° NW 14:14:57 38° NNE 14:15:32 37° NE
Delta 142 4.2 14:11:05 10° WNW 14:15:10 50° SSW 14:17:08 30° SSE
ATLAS 3B R/B 4.0 14:12:17 10° SSE 14:17:00 23° SE 14:17:00 23° SE
COSMOS 2428 3.3 14:15:08 10° N 14:18:56 38° NNE 14:18:56 38° NNE
ISS -0.6 14:20:44 10° W 14:22:16 13° SW 14:23:48 10° SSW
Cosmos 1153 Rocket 4.4 14:18:24 10° S 14:24:32 81° W 14:30:39 10° N
FengYun 1-2 T 4.0 14:19:09 10° SSE 14:24:41 70° ENE 14:30:08 10° N
ARIANE 5 R/B 2.4 14:25:21 10° W 14:31:14 54° WNW 14:31:14 54° WNW
GPS 2-14 Rocket1 3.7 14:28:08 10° WNW 14:30:50 42° W 14:30:50 42° W
Cosmos 1607 3.9 14:26:08 10° SSW 14:32:14 81° WNW 14:34:08 47° NNE
Cosmos 1151 Rocket 3.7 14:28:43 10° SSW 14:32:55 52° W 14:33:57 42° NW
SEDSat Delta rocket 4.1 14:32:50 10° WNW 14:37:08 42° SSW 14:37:43 41° SSW
ARIANE 5 DEB (SYLDA) 4.2 14:33:55 10° WNW 14:38:36 54° N 14:38:48 53° NNE
Cosmos 2173 Rocket 4.0 14:32:48 10° S 14:38:15 62° SE 14:38:15 62° SE
SWIFT 3.6 14:36:17 10° WSW 14:38:58 38° SW 14:38:58 38° SW
Cosmos 2123 Rocket 4.0 14:34:29 10° N 14:40:45 80° W 14:47:06 10° S
BLOCK DM-SL R/B 4.0 14:50:58 10° W 14:51:49 15° W 14:51:49 15° W
ARIANE 5 R/B 3.5 14:57:16 10° W 15:01:31 83° N 23:17:57 10° E
Palapa 6 Rocket 4.3 14:56:55 10° WNW 15:03:59 69° WSW 15:03:59 69° WSW
Exosat Rocket 4.5 15:02:13 10° SSW 15:08:08 68° WNW 15:08:08 68° WNW
Ariane H10 4.4 22:02:58 32° ESE 22:02:58 32° ESE 22:10:10 10° E
Maqsat 3 4.5 22:22:11 58° E 22:22:11 58° E 22:27:26 10° E
Cosmos 1953 4.3 22:48:34 22° SSE 22:48:34 22° SSE 22:50:07 10° SSE
Cosmos 1656 4.3 22:55:20 10° S 23:00:51 56° ESE 23:06:23 10° NNE
Hubble Space Telescope 3.0 23:05:54 16° S 23:05:54 16° S 23:07:33 10° SSE
GPS 2-18 Rocket1 3.9 23:08:34 45° NNE 23:08:34 45° NNE 23:11:41 10° ENE
Cosmos 1610 Rocket 4.3 23:04:02 18° N 23:08:47 76° W 23:14:56 10° S
In-Cosmos 22 4.4 23:03:44 10° S 23:09:09 68° E 23:14:40 10° NNE
GPS 2-15 Rocket1 3.7 23:10:32 41° SSW 23:10:51 42° SSW 23:15:25 10° SE
ATLAS 2AS CENTAUR R/B 3.0 23:04:20 10° SSW 23:11:10 71° ESE 23:18:42 10° NNE
Cosmos 1697 Rocket 3.8 23:08:35 10° S 23:13:57 45° ESE 23:19:18 10° NNE
Cosmos 1833 4.4 23:13:45 10° N 23:19:14 72° ENE 23:24:53 10° SSE
CZ-4B R/B 3.9 23:15:15 10° N 23:19:43 78° WNW 23:24:05 10° SSW
Cosmos 2181 Rocket 4.1 23:15:06 10° SSW 23:21:11 49° W 23:27:10 10° NNW
IRS-P2 Rocket 4.5 23:17:37 10° N 23:22:58 70° WNW 23:28:14 10° SSW
Cosmos 1470 2.6 23:24:17 56° WNW 23:24:35 58° W 23:28:22 10° S
ARIANE 5 R/B 4.4 23:23:29 34° NNW 23:24:41 44° NNE 23:31:55 10° E
Cosmos 44 3.9 23:20:15 12° N 23:24:46 59° ENE 23:29:53 10° SSE
Meteor 2-5 Rocket 4.3 23:19:27 10° SSW 23:24:48 35° W 23:30:08 10° NNW
Cosmos 1818 3.5 23:22:46 10° SSW 23:28:09 88° WNW 23:33:33 10° NNE
Cosmos 1980 Rocket 4.1 23:23:33 10° SSE 23:28:26 31° ESE 23:33:18 10° NE
USA 161 3.7 23:26:08 10° S 23:26:55 17° SSW 23:26:55 17° SSW
NOAA 6 4.4 23:29:33 10° NNE 23:34:39 68° ESE 23:39:44 10° S
Cosmos 2369 4.0 23:32:29 10° SW 23:37:47 42° WNW 23:43:04 10° N
Meteor 1-31 Rocket 3.3 23:38:13 28° NW 23:39:14 32° W 23:42:42 10° SW
BLOCK DM-SL R/B 3.9 23:36:53 20° W 23:44:16 81° N 23:49:07 10° E
Cosmos 2341 Rocket 4.0 23:38:30 10° N 23:44:49 72° W 23:51:09 10° S
GPS 2-12 Rocket1 3.1 23:41:45 19° WSW 23:45:07 84° SSE 23:49:57 10° ENE
Yuri Rocket 4.5 23:43:41 22° WNW 23:46:38 37° NNW 23:53:15 10° NE
Meteor 1-16 Rocket 4.4 23:42:23 10° N 23:48:15 88° E 23:54:12 10° S
APEX 4.4 23:45:22 10° NNW 23:50:36 78° ENE 23:57:15 10° SSE
Delta 7925 Rocket 3.8 23:43:52 10° WSW 23:50:37 86° SSE 23:55:55 10° ENE
Cosmos 1295 Rocket 4.5 23:44:25 10° N 23:50:43 73° W 23:57:02 10° S
CZ-4B R/B 4.4 23:50:26 10° NNW 23:54:18 19° WNW 23:58:12 10° WSW
Molniya-1 4.3 23:52:25 10° N 23:54:18 34° ENE 23:56:23 10° SE
